This demonstration page uses our WeatherBlox Daily Observations layout. Learn more.

Left ArrowRight Arrow

Hourly Observations for April 7, 2019

Temp ( °F °C ) Dew Point ( °F °C ) Humidity (%) Winds ( mph kmh ) Pressure ( in mb ) Visibility ( mi km ) Precip ( " mm )
12:53 am 00:53 Clear 56 13.3 26 -3.3 32 32 W 7 11 29.82 1010 10 16 0.00 0.00
1:53 am 01:53 Clear 54 12.2 26 -3.3 34 34 W 9 15 29.83 1010 10 16 0.00 0.00
2:53 am 02:53 Clear 56 13.3 27 -2.8 33 33 WNW 9 15 29.81 1010 10 16 0.00 0.00
3:53 am 03:53 Clear 54 12.2 27 -2.8 35 35 W 7 11 29.80 1009 10 16 0.00 0.00
4:53 am 04:53 Clear 51 10.6 27 -2.8 39 39 Calm 29.82 1010 10 16 0.00 0.00
5:53 am 05:53 Clear 47 8.3 27 -2.8 46 46 ESE 9 15 29.86 1011 10 16 0.00 0.00
6:53 am 06:53 Clear 48 8.9 27 -2.8 44 44 Calm 29.85 1011 10 16 0.00 0.00
7:53 am 07:53 Sunny 45 7.2 28 -2.2 52 52 NNW 5 7 29.88 1012 10 16 0.00 0.00
8:53 am 08:53 Sunny 51 10.6 31 -0.6 46 46 NW 6 9 29.88 1012 10 16 0.00 0.00
9:53 am 09:53 Sunny 64 17.8 29 -1.7 27 27 NNW 9 15 29.88 1012 10 16 0.00 0.00
10:53 am 10:53 Sunny 72 22.2 31 -0.6 22 22 N 8 13 29.88 1012 10 16 0.00 0.00
11:53 am 11:53 Sunny 79 26.1 29 -1.7 16 16 N 14 22 29.88 1012 10 16 0.00 0.00
12:53 pm 12:53 Sunny 82 27.8 29 -1.7 14 14 NNW 8 13 29.88 1012 10 16 0.00 0.00
1:53 pm 13:53 Sunny 83 28.3 25 -3.9 12 12 WNW 13 20 29.85 1011 10 16 0.00 0.00
2:53 pm 14:53 Sunny 85 29.4 25 -3.9 11 11 WNW 15 24 29.84 1011 10 16 0.00 0.00
3:53 pm 15:53 Sunny 85 29.4 22 -5.6 10 10 NW 18 30 29.82 1010 10 16 0.00 0.00
4:53 pm 16:53 Sunny 85 29.4 19 -7.2 9 9 NW 9 15 29.80 1009 10 16 0.00 0.00
5:53 pm 17:53 Sunny 85 29.4 21 -6.1 9 9 NW 6 9 29.80 1009 10 16 0.00 0.00
6:53 pm 18:53 Sunny 84 28.9 20 -6.7 9 9 NE 7 11 29.80 1009 10 16 0.00 0.00
7:53 pm 19:53 Sunny 81 27.2 23 -5 12 12 NNE 6 9 29.83 1010 10 16 0.00 0.00
8:53 pm 20:53 Clear 71 21.7 26 -3.3 19 19 NNE 10 17 29.85 1011 10 16 0.00 0.00
9:53 pm 21:53 Clear 67 19.4 27 -2.8 22 22 NE 9 15 29.88 1012 10 16 0.00 0.00
10:53 pm 22:53 Clear 65 18.3 34 1.1 32 32 ENE 9 15 29.91 1013 10 16 0.00 0.00
11:53 pm 23:53 Clear 64 17.8 40 4.4 41 41 ENE 10 17 29.92 1013 10 16 0.00 0.00

Powered by AerisWeather